Location: Sevilla
(37.3933°N, 5.9839°W)
Time: 04:58:45
(UTC+02:00)

Tiros 1 despin weight - Pass Details

Date: 27 June 2024
Orbit: 576 x 620 km, 48.2° (Epoch: 22 July)

Event Time Altitude Azimuth Distance (km) Brightness Sun altitude
Rises 14:03:44 0° 273° (W) 2,879 ? 75.0°
Reaches altitude 10° 14:06:20 10° 286° (WNW) 1,980 ? 75.2°
Maximum altitude 14:10:12 27° 344° (NNW) 1,208 ? 75.4°
Drops below altitude 10° 14:14:06 10° 43° (NE) 1,989 ? 75.6°
Sets 14:16:43 0° 56° (NE) 2,895 ? 75.7°
